Wind_Speed
16 16 17 17 17 17 17 17 17 17 17 17 18 18 18 18 17 17 17 16 17 16 17 17 17 18 18 18 18 18 18 19 19 19 19 18 18 18
18 18 18 18 18 18 18 18 17 17 17 17 18 18 18 18 18 17 16 15 15 16 17 18 18 18 18 18 19 19 19 19 19 19 18 18 18 18
19 19 19 18 19 19 18 18 18 18 18 18 18 18 18 18 18 17 17 16 16 17 17 17 17 17 18 18 18 18 18 17 18 18 18 18 18 18
19 20 20 20 19 19 19 18 18 18 19 19 18 18 18 18 17 17 17 17 17 18 17 17 17 17 17 17 17 17 17 17 17 17 17 18 18 18
21 21 20 20 19 19 19 19 18 19 19 19 18 18 18 18 18 17 17 17 18 18 18 18 18 17 17 17 17 17 17 17 17 17 17 17 18 18
22 21 21 20 20 20 19 19 19 20 20 19 19 18 18 18 18 18 18 17 18 18 18 18 18 18 18 17 17 17 17 17 17 18 18 18 18 19
22 22 21 20 20 20 20 20 20 20 20 20 20 19 18 18 18 18 18 19 19 19 18 18 19 19 18 18 18 17 17 18 18 19 19 19 19 20
22 22 21 20 21 21 21 21 21 20 20 20 20 19 19 19 18 19 19 20 20 20 20 20 20 19 19 19 19 18 19 19 20 21 21 21 21 21
22 22 22 22 22 22 22 21 21 21 21 21 20 20 20 20 20 20 20 20 21 20 21 20 21 20 20 20 21 21 21 21 21 21 22 23 23 23
23 23 24 23 23 23 22 22 22 22 22 22 21 21 21 22 22 21 21 21 22 22 21 21 21 21 21 21 22 22 22 22 22 22 22 23 23 24
24 24 24 24 24 23 23 22 22 23 23 22 22 22 21 22 22 22 22 22 22 22 23 23 22 22 22 22 23 23 23 23 23 24 24 24 24 24
24 23 23 23 23 23 23 23 24 24 24 23 23 23 23 23 23 23 23 23 22 22 22 23 24 24 24 24 24 24 24 24 24 24 24 24 24 24
24 24 24 24 23 23 24 24 25 25 25 26 26 25 25 25 25 25 25 24 24 23 22 23 23 23 24 24 25 25 25 24 24 24 25 25 25 25
25 25 25 25 25 25 25 26 26 26 26 27 27 27 27 26 26 26 27 27 26 26 25 26 25 25 25 25 25 26 26 26 26 25 25 25 26 26
25 26 26 26 26 27 26 26 27 27 27 27 27 27 28 28 28 28 28 28 29 28 28 28 28 28 27 27 27 27 27 27 27 27 27 26 26 27
25 25 26 26 26 27 27 28 28 28 28 29 29 29 29 30 30 31 31 30 30 30 30 30 30 29 28 28 28 28 28 28 28 28 28 27 26 27
26 26 26 26 26 27 28 29 29 29 29 29 29 30 30 31 31 31 32 32 32 32 31 31 31 30 30 29 29 29 29 29 29 29 29 28 28 28
26 26 27 27 27 28 29 29 28 29 29 30 30 30 31 31 31 31 32 32 32 32 32 32 32 31 31 30 30 30 31 30 31 31 30 30 29 30
26 26 27 28 28 28 29 29 29 29 29 30 30 30 31 31 31 32 32 32 32 32 32 32 32 32 31 31 31 32 32 31 32 31 31 31 30 31
27 27 27 27 28 28 28 28 28 29 29 30 30 31 31 31 31 32 32 32 32 32 32 32 32 32 32 32 31 31 32 32 32 32 32 32 32 32
27 27 27 27 28 28 29 29 29 29 29 30 30 30 31 31 31 31 32 32 32 32 31 31 32 32 32 32 31 30 31 32 33 32 32 33 33 32
28 28 28 28 28 29 29 29 29 29 29 29 30 30 30 30 31 31 31 31 31 31 31 31 31 32 31 31 31 31 31 31 32 33 33 33 33 32
28 28 29 29 29 29 29 29 29 29 29 29 29 29 29 29 29 29 29 29 29 29 29 30 31 31 31 31 31 31 31 31 32 32 33 33 33 33
Wind_Direction
276 280 283 284 285 285 285 285 286 285 283 284 285 285 284 286 286 285 284 284 284 283 283 282 281 280 277 275 272 269 267 265 263 261 260 261 263 264
277 280 283 282 283 286 285 284 285 286 286 285 285 284 283 285 284 283 282 282 282 281 282 282 281 281 278 276 274 273 271 267 264 261 260 260 261 263
274 278 282 283 283 283 284 283 284 285 285 285 286 287 284 283 283 281 281 280 282 281 282 283 282 281 279 276 275 274 272 269 267 263 262 262 262 262
275 278 280 283 283 282 281 282 283 284 285 286 286 286 284 282 281 279 279 280 281 282 282 281 282 283 281 279 275 273 271 269 267 263 263 264 264 264
276 279 281 283 283 281 280 281 283 285 285 287 287 284 283 282 280 278 278 280 281 281 280 280 282 283 282 281 277 274 272 269 267 265 265 264 265 265
277 279 280 282 281 280 279 281 284 285 285 285 284 282 281 280 278 277 277 280 281 280 278 278 281 283 283 281 278 276 274 271 270 268 268 267 266 267
277 279 279 280 282 281 280 281 283 283 284 283 282 279 277 277 277 277 277 278 280 280 277 276 277 279 279 277 276 275 274 273 272 270 268 269 268 267
277 277 278 279 280 279 280 281 282 282 282 282 280 278 276 276 276 276 277 278 279 278 277 276 276 277 277 274 272 272 273 273 274 272 269 269 269 269
275 276 277 279 279 279 279 279 281 281 280 281 280 277 276 276 277 278 279 280 279 277 275 274 275 274 275 274 272 272 274 275 274 272 271 271 272 271
276 276 277 278 277 277 277 278 280 281 280 280 278 277 276 275 276 278 279 279 280 278 276 275 274 273 274 274 274 273 274 274 275 274 275 274 274 273
276 276 276 276 275 274 275 277 279 280 280 278 277 277 277 277 277 278 279 279 281 280 279 276 274 273 272 273 273 273 274 275 275 275 276 275 274 273
275 276 277 277 275 273 274 275 276 277 277 276 276 277 277 277 278 279 280 279 279 280 279 277 275 274 272 272 272 273 274 274 274 275 275 275 276 275
275 276 276 276 276 274 275 276 277 277 275 275 275 275 276 276 277 278 279 278 278 277 277 278 277 275 274 274 273 273 273 273 274 275 276 277 278 276
274 274 273 274 275 277 276 277 277 277 276 276 275 274 275 275 276 276 277 277 278 276 275 276 276 276 275 274 274 274 272 272 274 275 277 278 279 278
274 273 274 274 275 276 276 277 277 276 276 276 276 275 274 275 275 275 276 277 278 276 276 275 275 275 275 274 273 273 273 273 274 275 276 278 278 277
274 274 275 275 275 275 275 275 275 276 276 275 276 276 277 276 276 275 274 274 275 276 275 274 274 274 275 275 274 273 273 273 274 275 276 278 279 279
274 274 275 275 275 275 276 276 276 276 276 276 276 276 277 277 277 276 275 274 274 274 274 273 273 273 274 275 275 274 273 273 273 274 276 278 279 279
275 276 277 276 275 274 275 276 274 275 276 277 278 277 277 277 277 277 276 276 275 274 273 271 271 272 273 274 274 273 272 272 273 273 274 276 278 278
276 276 277 277 276 277 278 277 277 277 277 278 279 279 279 278 277 276 276 276 275 274 273 272 272 273 273 272 273 273 272 272 272 273 274 275 277 278
276 277 277 278 278 278 280 279 278 278 279 279 280 280 280 279 279 278 277 276 274 274 273 273 273 273 273 273 272 273 273 273 273 273 274 275 277 279
275 277 278 278 278 279 280 280 279 280 280 280 280 280 280 281 282 280 278 277 275 275 275 274 274 274 274 274 273 274 274 274 275 275 275 276 278 279
275 277 278 278 278 280 281 281 280 280 280 280 281 281 281 282 282 281 279 278 277 276 275 275 274 275 276 275 275 274 274 274 276 277 277 278 278 279
276 277 278 278 279 280 281 281 281 281 280 280 281 281 282 282 283 283 281 279 277 277 276 276 276 277 277 277 277 276 275 275 275 276 278 280 280 279
Height
5811 5811 5810 5809 5809 5808 5807 5807 5806 5805 5805 5803 5802 5801 5800 5799 5799 5798 5797 5796 5795 5795 5794 5794 5793 5793 5793 5792 5792 5792 5792 5792 5792 5792 5792 5793 5792 5793
5806 5806 5805 5805 5804 5803 5802 5801 5801 5800 5799 5799 5797 5796 5795 5794 5793 5792 5792 5791 5791 5790 5789 5789 5788 5788 5787 5787 5787 5786 5786 5786 5786 5786 5787 5787 5787 5788
5801 5801 5801 5800 5799 5798 5797 5796 5795 5794 5793 5793 5792 5790 5789 5788 5788 5787 5787 5786 5786 5785 5784 5784 5783 5782 5782 5781 5781 5781 5780 5781 5781 5781 5782 5782 5782 5783
5797 5796 5795 5795 5794 5793 5792 5791 5790 5789 5788 5787 5786 5785 5784 5783 5783 5782 5782 5781 5781 5780 5779 5779 5778 5777 5777 5776 5776 5776 5775 5776 5776 5776 5776 5777 5777 5778
5791 5791 5790 5789 5788 5787 5786 5785 5784 5783 5782 5781 5780 5780 5779 5778 5777 5777 5777 5776 5776 5775 5774 5774 5773 5772 5771 5771 5771 5771 5771 5771 5771 5771 5771 5772 5772 5772
5785 5785 5784 5783 5782 5781 5781 5780 5779 5778 5777 5776 5775 5774 5774 5773 5772 5772 5772 5771 5770 5770 5769 5769 5768 5767 5767 5766 5766 5766 5766 5766 5766 5766 5766 5767 5767 5767
5779 5779 5778 5777 5776 5776 5775 5774 5773 5772 5771 5770 5769 5769 5768 5767 5767 5767 5766 5766 5765 5764 5764 5763 5763 5762 5762 5761 5761 5761 5761 5761 5761 5761 5761 5761 5761 5761
5773 5772 5772 5771 5770 5769 5769 5768 5767 5766 5765 5764 5764 5763 5763 5762 5761 5761 5760 5760 5760 5759 5758 5758 5757 5757 5756 5756 5755 5755 5755 5755 5755 5755 5755 5755 5755 5755
5766 5766 5765 5764 5764 5763 5762 5761 5761 5760 5759 5759 5758 5757 5757 5756 5755 5755 5754 5754 5753 5752 5752 5751 5751 5751 5750 5750 5749 5749 5749 5749 5749 5748 5749 5749 5748 5748
5759 5759 5758 5758 5757 5756 5755 5755 5754 5753 5753 5752 5751 5751 5750 5750 5749 5749 5748 5747 5747 5746 5745 5745 5745 5744 5744 5743 5743 5743 5743 5742 5742 5742 5742 5742 5741 5741
5752 5751 5751 5750 5750 5749 5749 5748 5748 5747 5746 5745 5744 5744 5743 5742 5742 5742 5741 5741 5740 5739 5738 5738 5738 5738 5738 5737 5736 5736 5736 5736 5735 5735 5735 5734 5734 5734
5745 5744 5743 5743 5742 5741 5741 5741 5741 5740 5739 5738 5737 5736 5736 5735 5735 5734 5734 5733 5733 5733 5732 5731 5731 5731 5731 5731 5730 5729 5729 5729 5729 5728 5728 5727 5726 5726
5737 5737 5736 5735 5735 5734 5734 5733 5733 5732 5731 5730 5730 5729 5729 5728 5727 5727 5726 5726 5725 5725 5725 5724 5723 5723 5723 5723 5722 5722 5721 5721 5721 5721 5720 5720 5719 5718
5729 5729 5728 5728 5727 5726 5726 5725 5724 5724 5723 5722 5721 5721 5721 5720 5719 5719 5718 5718 5717 5717 5716 5716 5716 5715 5715 5715 5715 5714 5713 5713 5713 5713 5712 5712 5711 5710
5720 5720 5719 5719 5719 5718 5717 5716 5715 5714 5714 5713 5713 5712 5712 5711 5711 5710 5709 5709 5708 5708 5708 5707 5707 5707 5706 5706 5706 5705 5705 5705 5704 5704 5704 5703 5703 5702
5712 5711 5711 5710 5709 5708 5708 5707 5706 5705 5704 5704 5703 5703 5702 5701 5701 5700 5700 5699 5699 5699 5698 5698 5698 5697 5697 5697 5697 5696 5696 5696 5696 5695 5695 5694 5693 5692
5702 5702 5702 5701 5700 5699 5698 5697 5696 5695 5695 5694 5693 5693 5692 5691 5691 5690 5690 5689 5689 5689 5688 5688 5688 5687 5687 5687 5687 5687 5686 5686 5686 5686 5685 5685 5684 5683
5693 5693 5692 5691 5691 5690 5689 5688 5687 5686 5685 5684 5684 5683 5682 5681 5681 5680 5679 5679 5678 5678 5678 5677 5677 5677 5678 5677 5677 5677 5676 5676 5676 5676 5675 5675 5675 5673
5684 5683 5683 5682 5681 5680 5679 5678 5677 5676 5675 5675 5674 5673 5672 5671 5670 5669 5668 5668 5668 5668 5667 5666 5666 5666 5667 5668 5668 5666 5666 5666 5665 5665 5665 5665 5665 5664
5675 5674 5673 5672 5671 5671 5670 5669 5668 5667 5666 5665 5664 5662 5661 5660 5659 5659 5658 5657 5657 5657 5656 5656 5656 5656 5656 5656 5656 5656 5655 5654 5654 5654 5654 5653 5653 5653
5666 5665 5664 5663 5662 5661 5660 5659 5658 5657 5656 5655 5653 5652 5651 5650 5649 5648 5647 5646 5646 5646 5646 5646 5645 5645 5644 5644 5645 5645 5644 5643 5642 5642 5642 5642 5642 5641
5656 5655 5654 5653 5652 5651 5650 5649 5648 5647 5646 5645 5643 5642 5641 5640 5638 5637 5636 5636 5635 5635 5635 5635 5634 5634 5633 5633 5634 5634 5633 5632 5631 5631 5630 5630 5630 5630
5647 5646 5645 5644 5642 5641 5640 5639 5638 5637 5636 5635 5634 5632 5631 5630 5629 5627 5626 5625 5625 5625 5625 5624 5624 5623 5623 5622 5622 5622 5622 5621 5621 5620 5620 5618 5618 5618